• In Hungary
  • List of Countries
  • For 7 days
  • Water Temperature
  • Satellite Maps
  • Weather Map
  • News
  • Weather Widgets
  • user-avatar
    Login

    Hourly Weather Yulara

    Today, 26 September, Tuesday

    Time Temperature Precipitation Wind Pressure Humidity
    00:00 +25°C° 0 mm 5 mps 714 mmHg 20%
    01:00 +23°C° 0 mm 5 mps 714 mmHg 22%
    02:00 +22°C° 0 mm 4 mps 714 mmHg 24%
    03:00 +22°C° 0 mm 4 mps 713 mmHg 25%
    04:00 +21°C° 0 mm 4 mps 713 mmHg 26%
    05:00 +21°C° 0 mm 3 mps 713 mmHg 28%
    06:00 +21°C° 0 mm 3 mps 714 mmHg 29%
    07:00 +25°C° 0 mm 5 mps 714 mmHg 26%
    08:00 +27°C° 0 mm 7 mps 715 mmHg 23%
    09:00 +31°C° 0 mm 9 mps 715 mmHg 20%
    10:00 +33°C° 0 mm 10 mps 715 mmHg 19%
    11:00 +36°C° 0 mm 11 mps 715 mmHg 17%
    12:00 +37°C° 0 mm 12 mps 715 mmHg 16%
    13:00 +38°C° 0 mm 12 mps 714 mmHg 15%
    14:00 +38°C° 0 mm 12 mps 714 mmHg 14%
    15:00 +39°C° 0 mm 12 mps 713 mmHg 13%
    16:00 +38°C° 0 mm 11 mps 713 mmHg 15%
    17:00 +37°C° 0 mm 9 mps 713 mmHg 16%
    18:00 +35°C° 0 mm 8 mps 713 mmHg 17%
    19:00 +33°C° 0 mm 7 mps 714 mmHg 20%
    20:00 +32°C° 0 mm 6 mps 714 mmHg 22%
    21:00 +29°C° 0 mm 5 mps 715 mmHg 25%
    22:00 +28°C° 0 mm 5 mps 715 mmHg 27%
    23:00 +28°C° 0 mm 5 mps 715 mmHg 29%

    Tomorrow, 27 September, Wednesday

    Time Temperature Precipitation Wind Pressure Humidity
    00:00 +27°C° 0 mm 5 mps 715 mmHg 31%
    01:00 +26°C° 0 mm 5 mps 715 mmHg 32%
    02:00 +25°C° 0 mm 4 mps 715 mmHg 33%
    03:00 +23°C° 0 mm 4 mps 715 mmHg 34%
    04:00 +22°C° 0 mm 5 mps 715 mmHg 35%
    05:00 +21°C° 0 mm 5 mps 715 mmHg 37%
    06:00 +20°C° 0 mm 6 mps 715 mmHg 38%
    07:00 +21°C° 0 mm 6 mps 716 mmHg 37%
    08:00 +22°C° 0 mm 5 mps 716 mmHg 36%
    09:00 +23°C° 0 mm 5 mps 717 mmHg 34%
    10:00 +25°C° 0 mm 5 mps 717 mmHg 35%
    11:00 +26°C° 0 mm 5 mps 717 mmHg 36%
    12:00 +27°C° 0 mm 5 mps 717 mmHg 36%
    13:00 +23°C° 0.2 mm 6 mps 717 mmHg 45%
    14:00 +21°C° 0.2 mm 7 mps 716 mmHg 54%
    15:00 +18°C° 0.2 mm 8 mps 716 mmHg 62%
    16:00 +18°C° 0.4 mm 7 mps 716 mmHg 64%
    17:00 +17°C° 0.4 mm 6 mps 716 mmHg 65%
    18:00 +17°C° 0.4 mm 5 mps 717 mmHg 67%
    19:00 +18°C° 0.2 mm 4 mps 717 mmHg 63%
    20:00 +18°C° 0.2 mm 4 mps 718 mmHg 60%
    21:00 +18°C° 0.2 mm 3 mps 718 mmHg 56%
    22:00 +18°C° 0.6 mm 3 mps 718 mmHg 56%
    23:00 +18°C° 0.6 mm 3 mps 718 mmHg 57%

    Day after tomorrow, 28 September, Thursday

    Time Temperature Precipitation Wind Pressure Humidity
    00:00 +18°C° 0.6 mm 2 mps 718 mmHg 57%
    01:00 +17°C° 0.5 mm 3 mps 717 mmHg 60%
    02:00 +17°C° 0.5 mm 3 mps 717 mmHg 63%
    03:00 +15°C° 0.5 mm 4 mps 717 mmHg 66%
    04:00 +15°C° 0.9 mm 4 mps 717 mmHg 69%
    05:00 +15°C° 0.9 mm 5 mps 718 mmHg 71%
    06:00 +14°C° 0.9 mm 5 mps 718 mmHg 74%
    07:00 +15°C° 0.9 mm 5 mps 718 mmHg 73%
    08:00 +15°C° 0.9 mm 6 mps 719 mmHg 73%
    09:00 +15°C° 0.9 mm 6 mps 719 mmHg 72%
    10:00 +16°C° 0.3 mm 6 mps 719 mmHg 69%
    11:00 +16°C° 0.3 mm 5 mps 719 mmHg 67%
    12:00 +17°C° 0.3 mm 5 mps 719 mmHg 64%
    13:00 +19°C° 0.2 mm 5 mps 718 mmHg 64%
    14:00 +19°C° 0.2 mm 5 mps 718 mmHg 64%
    15:00 +19°C° 0.2 mm 5 mps 717 mmHg 64%
    16:00 +19°C° 0 mm 5 mps 717 mmHg 66%
    17:00 +18°C° 0 mm 4 mps 717 mmHg 67%
    18:00 +18°C° 0 mm 4 mps 717 mmHg 68%
    19:00 +18°C° 0.2 mm 4 mps 718 mmHg 70%
    20:00 +18°C° 0.2 mm 4 mps 718 mmHg 71%
    21:00 +17°C° 0.2 mm 4 mps 718 mmHg 72%
    22:00 +17°C° 0.7 mm 4 mps 718 mmHg 74%
    23:00 +17°C° 0.7 mm 4 mps 718 mmHg 76%

    29 September, Friday

    Time Temperature Precipitation Wind Pressure Humidity
    00:00 +17°C° 0.7 mm 4 mps 718 mmHg 78%
    01:00 +17°C° 0.5 mm 4 mps 717 mmHg 78%
    02:00 +16°C° 0.5 mm 5 mps 717 mmHg 78%
    03:00 +16°C° 0.5 mm 6 mps 717 mmHg 78%
    04:00 +16°C° 0.5 mm 5 mps 717 mmHg 78%
    05:00 +16°C° 0.5 mm 5 mps 717 mmHg 77%
    06:00 +16°C° 0.5 mm 5 mps 718 mmHg 77%
    07:00 +17°C° 0.1 mm 6 mps 718 mmHg 72%
    08:00 +19°C° 0.1 mm 6 mps 719 mmHg 67%
    09:00 +20°C° 0.1 mm 7 mps 719 mmHg 62%
    10:00 +21°C° 0.1 mm 7 mps 719 mmHg 60%
    11:00 +22°C° 0.1 mm 7 mps 719 mmHg 59%
    12:00 +22°C° 0.1 mm 7 mps 719 mmHg 57%
    13:00 +23°C° 0 mm 6 mps 719 mmHg 56%
    14:00 +23°C° 0 mm 6 mps 718 mmHg 55%
    15:00 +24°C° 0 mm 6 mps 717 mmHg 54%
    16:00 +23°C° 0.2 mm 6 mps 717 mmHg 58%
    17:00 +22°C° 0.2 mm 7 mps 717 mmHg 62%
    18:00 +20°C° 0.2 mm 7 mps 718 mmHg 66%
    19:00 +20°C° 0.7 mm 7 mps 718 mmHg 69%
    20:00 +18°C° 0.7 mm 7 mps 719 mmHg 72%
    21:00 +18°C° 0.7 mm 7 mps 719 mmHg 75%
    22:00 +17°C° 0.4 mm 7 mps 719 mmHg 76%
    23:00 +17°C° 0.4 mm 7 mps 719 mmHg 76%

    30 September, Saturday

    Time Temperature Precipitation Wind Pressure Humidity
    00:00 +17°C° 0.4 mm 7 mps 719 mmHg 77%
    01:00 +16°C° 0.2 mm 7 mps 719 mmHg 78%
    02:00 +16°C° 0.2 mm 7 mps 719 mmHg 78%
    03:00 +16°C° 0.2 mm 7 mps 719 mmHg 79%
    04:00 +16°C° 0.6 mm 7 mps 719 mmHg 80%
    05:00 +16°C° 0.6 mm 8 mps 719 mmHg 81%
    06:00 +16°C° 0.6 mm 8 mps 720 mmHg 82%
    07:00 +16°C° 2.4 mm 9 mps 720 mmHg 82%
    08:00 +16°C° 2.4 mm 10 mps 721 mmHg 81%
    09:00 +16°C° 2.4 mm 10 mps 721 mmHg 80%
    10:00 +17°C° 0.3 mm 10 mps 721 mmHg 78%
    11:00 +17°C° 0.3 mm 10 mps 720 mmHg 75%
    12:00 +18°C° 0.3 mm 9 mps 720 mmHg 73%
    13:00 +18°C° 0.3 mm 9 mps 720 mmHg 72%
    14:00 +18°C° 0.3 mm 9 mps 719 mmHg 72%
    15:00 +18°C° 0.3 mm 9 mps 719 mmHg 71%
    16:00 +18°C° 0.2 mm 9 mps 719 mmHg 73%
    17:00 +17°C° 0.2 mm 8 mps 720 mmHg 75%
    18:00 +17°C° 0.2 mm 7 mps 720 mmHg 77%
    19:00 +17°C° 0.1 mm 7 mps 721 mmHg 79%
    20:00 +16°C° 0.1 mm 7 mps 721 mmHg 80%
    21:00 +16°C° 0.1 mm 7 mps 722 mmHg 82%
    22:00 +16°C° 0.1 mm 7 mps 722 mmHg 83%
    23:00 +16°C° 0.1 mm 6 mps 722 mmHg 84%

    1 October, Sunday

    Time Temperature Precipitation Wind Pressure Humidity
    00:00 +15°C° 0.1 mm 6 mps 721 mmHg 85%
    01:00 +15°C° 0 mm 7 mps 721 mmHg 84%
    02:00 +15°C° 0 mm 7 mps 721 mmHg 84%
    03:00 +15°C° 0 mm 8 mps 721 mmHg 83%
    04:00 +13°C° 0 mm 8 mps 721 mmHg 83%
    05:00 +14°C° 0 mm 7 mps 721 mmHg 84%
    06:00 +14°C° 0 mm 7 mps 721 mmHg 84%
    07:00 +15°C° 0 mm 8 mps 722 mmHg 78%
    08:00 +16°C° 0 mm 8 mps 722 mmHg 71%
    09:00 +17°C° 0 mm 9 mps 722 mmHg 65%
    10:00 +19°C° 0 mm 9 mps 722 mmHg 59%
    11:00 +22°C° 0 mm 9 mps 721 mmHg 52%
    12:00 +23°C° 0 mm 9 mps 721 mmHg 46%
    13:00 +24°C° 0 mm 8 mps 720 mmHg 43%
    14:00 +26°C° 0 mm 8 mps 720 mmHg 39%
    15:00 +27°C° 0 mm 7 mps 719 mmHg 36%
    16:00 +26°C° 0 mm 7 mps 720 mmHg 37%
    17:00 +24°C° 0 mm 7 mps 720 mmHg 38%
    18:00 +24°C° 0 mm 6 mps 720 mmHg 40%
    19:00 +23°C° 0 mm 7 mps 721 mmHg 42%
    20:00 +22°C° 0 mm 7 mps 721 mmHg 44%
    21:00 +21°C° 0 mm 8 mps 721 mmHg 46%
    22:00 +20°C° 0 mm 8 mps 721 mmHg 47%
    23:00 +20°C° 0 mm 8 mps 721 mmHg 48%
    Show more